Terug naar catalogus

CICERO-3

ActiefCommunicatieSSO
NORAD 42849·PAYLOAD·🇳🇴 Norway
Deze satellietnaam is nog niet bevestigd door officiële bronnen.

Gelanceerd Jul 14, 2017 vanaf Baikonur Cosmodrome

Loading…

Volgende Passages (komende 24 uur)

TLE

VersSource: Space-Track

Epoch: Sep 14, 2026, 10:14 UTC

1 42849U 17042AA  26257.42697749  .00002417  00000-0  15979-3 0  9999
2 42849  97.4346  60.2158 0011446 150.2903 209.8978 15.08254743500669

Volg CICERO-3 in realtime met AllMySat

Download on the App Store